313P/Gibbs (2020)

Japanese version
Home page
Updated on September 23, 2018

---------------------------------------------------------------------

* Profile

* Orbital Elements

Epoch 2020 Apr. 21.0 TT = JDT 2458960.5
T 2020 Apr. 15.16845 TT                                 MPCW
q   2.4188919            (2000.0)            P               Q
n   0.17537437     Peri.  254.60684     +0.98297040     -0.01477722
a   3.1610058      Node   105.97202     +0.07787787     +0.93632444
e   0.2347714      Incl.   10.98335     -0.16644590     +0.35082499
P   5.62
From 97 observations 2003 Sept. 30-2018 July 11, mean residual 0".6.

* Magnitudes Graph

        m1 = 14.5 + 5 log d + 10.0 log r

---------------------------------------------------------------------

The orbital elements are published on M.P.E.C. 2018-S50.
The magnitudes graphs are made with Comet for Windows.

---------------------------------------------------------------------

Copyright(C) Seiichi Yoshida (comet@aerith.net). All rights reserved.